Weather History for Spokane Fairchild, WA

Change the Weather History Date:

Tuesday, June 24, 2014

  Actual Average Record
Temperature  
Mean Temperature 64 °F -  
Max Temperature 72 °F 73 °F 91 °F (2004)
Min Temperature 55 °F 50 °F 43 °F (2011)
Degree Days  
Heating Degree Days 2    
Growing Degree Days 14 (Base 50)    
Moisture  
Dew Point 50 °F    
Average Humidity 62    
Maximum Humidity 77    
Minimum Humidity 41    
Precipitation  
Precipitation 0.00 in - - ()
Sea Level Pressure  
Sea Level Pressure 29.99 in    
Wind  
Wind Speed 8 mph (SW)    
Max Wind Speed 18 mph    
Max Gust Speed 24 mph    
Visibility 10 miles    
Events Rain    
Averages and records for this station are not official NWS values.
T = Trace of Precipitation, MM = Missing Value Source: NWS Daily Summary

Daily Weather History Graph

Daily Weather History Graph

Search for Another Location

Airport:

Trip Planner

Search our weather history database for the weather conditions in past years. The results will help you decide how hot, cold, wet, or windy it might be!

Date:

Astronomy

Jun. 24, 2014 Rise Set
Actual Time 4:53 AM PDT 8:52 PM PDT
Civil Twilight 4:12 AM PDT 9:33 PM PDT
Nautical Twilight 3:16 AM PDT 10:29 PM PDT
Astronomical Twilight 1:45 AM PDT 12:00 AM PDT
Moon 3:13 AM PDT (6/24) 6:27 PM PDT (6/24)
Length of Visible Light 17h 20m
Length of Day
15h 58m
Waning Crescent, 6% of the Moon is Illuminated
Jun 24
Waning Crescent
Jun 27
New
Jul 5
First Quarter
Jul 12
Full
Jul 18
Last Quarter

Hourly Weather History & Observations

Time (PDT) Temp. Dew Point Humidity Pressure Visibility Wind Dir Wind Speed Gust Speed Precip Events Conditions
12:58 AM 64.6 °F 48.2 °F 55% 29.89 in 10.0 mi East 2.3 mph - N/A   Partly Cloudy
1:58 AM 65.5 °F 47.1 °F 51% 29.89 in 10.0 mi South 2.3 mph - N/A   Overcast
2:58 AM 64.4 °F 49.8 °F 59% 29.89 in 10.0 mi East 3.5 mph - N/A   Scattered Clouds
3:58 AM 62.8 °F 50.0 °F 63% 29.90 in 10.0 mi South 4.6 mph - N/A   Partly Cloudy
4:58 AM 62.1 °F 48.4 °F 61% 29.90 in 10.0 mi South 10.4 mph - N/A   Clear
5:58 AM 61.3 °F 48.4 °F 62% 29.93 in 10.0 mi SSW 10.4 mph - N/A   Clear
6:58 AM 63.1 °F 47.8 °F 57% 29.95 in 10.0 mi SW 18.4 mph 24.2 mph N/A   Partly Cloudy
7:58 AM 64.4 °F 50.4 °F 60% 29.98 in 10.0 mi WSW 15.0 mph - N/A   Mostly Cloudy
8:58 AM 64.0 °F 51.3 °F 63% 29.99 in 10.0 mi West 12.7 mph - N/A   Mostly Cloudy
9:54 AM 64.4 °F 51.8 °F 64% 30.02 in 10.0 mi West 9.2 mph - N/A Rain Light Rain
9:58 AM 64.4 °F 51.8 °F 64% 30.01 in 10.0 mi West 9.2 mph - 0.00 in Rain Light Rain
10:38 AM 62.6 °F 53.6 °F 72% 30.03 in 10.0 mi WSW 8.1 mph - N/A   Overcast
10:48 AM 62.6 °F 53.6 °F 72% 30.03 in 10.0 mi WSW 10.4 mph - N/A Rain Light Rain
10:57 AM 62.6 °F 51.8 °F 68% 30.04 in 10.0 mi SW 9.2 mph - N/A   Overcast
10:58 AM 63.0 °F 52.7 °F 69% 30.02 in 10.0 mi SW 9.2 mph - 0.00 in   Overcast
11:01 AM 62.6 °F 51.8 °F 68% 30.04 in 10.0 mi SW 8.1 mph - N/A Rain Light Rain
11:11 AM 62.6 °F 51.8 °F 68% 30.04 in 10.0 mi SW 8.1 mph - N/A   Overcast
11:47 AM 62.6 °F 50.0 °F 63% 30.04 in 10.0 mi SW 11.5 mph - N/A Rain Light Rain
11:58 AM 63.1 °F 50.5 °F 63% 30.02 in 10.0 mi SW 12.7 mph - 0.00 in   Light Drizzle
11:59 AM 62.6 °F 50.0 °F 63% 30.04 in 10.0 mi SW 13.8 mph - N/A   Overcast
12:05 PM 62.6 °F 50.0 °F 63% 30.04 in 10.0 mi WSW 12.7 mph - N/A Rain Light Rain
12:36 PM 60.8 °F 53.6 °F 77% 30.04 in 10.0 mi WSW 12.7 mph - N/A   Overcast
12:58 PM 61.5 °F 52.9 °F 73% 30.02 in 10.0 mi SW 10.4 mph - 0.00 in   Overcast
1:58 PM 64.6 °F 51.1 °F 62% 30.02 in 10.0 mi SSW 8.1 mph - N/A   Overcast
2:58 PM 69.3 °F 50.9 °F 52% 30.01 in 10.0 mi South 10.4 mph 16.1 mph N/A   Overcast
3:58 PM 68.4 °F 49.3 °F 50% 30.00 in 10.0 mi SSE 8.1 mph - N/A   Overcast
4:58 PM 70.5 °F 48.9 °F 46% 29.97 in 10.0 mi SSW 5.8 mph - N/A   Mostly Cloudy
5:58 PM 70.0 °F 49.1 °F 47% 29.97 in 10.0 mi SSW 5.8 mph - N/A   Scattered Clouds
6:58 PM 72.0 °F 46.8 °F 41% 29.94 in 10.0 mi SW 6.9 mph - N/A   Partly Cloudy
7:58 PM 69.6 °F 47.7 °F 45% 29.96 in 10.0 mi West 10.4 mph - N/A   Clear
8:58 PM 63.9 °F 50.7 °F 62% 29.97 in 10.0 mi WNW 10.4 mph - N/A   Clear
9:58 PM 59.5 °F 48.9 °F 68% 29.99 in 10.0 mi Variable 6.9 mph - N/A   Partly Cloudy
10:58 PM 55.9 °F 47.3 °F 73% 30.00 in 10.0 mi NNW 5.8 mph - N/A   Clear
11:58 PM 55.4 °F 46.9 °F 73% 29.99 in 10.0 mi NNW 2.3 mph - N/A   Mostly Cloudy